Location: Le Domaine
(47.0333°N, 76.5361°W)
Time: 08:25:47
(UTC-05:00)

Explorer 11/Cluster Stage 4 - Pass Details

Date: 17 November 2019
Orbit: 467 x 1259 km, 28.8° (Epoch: 05 December)

Event Time Altitude Azimuth Distance (km) Brightness Sun altitude
Rises 20:18:33 0° 209° (SSW) 3,411 10.0 -38.7°
Enters shadow 20:18:50 - 207° (SSW) 3,345 9.9 -38.8°
Reaches altitude 10° 20:23:05 10° 177° (S) 2,691 - -39.5°
Maximum altitude 20:25:05 11° 159° (SSE) 2,670 - -39.8°
Drops below altitude 10° 20:27:12 10° 142° (SE) 2,864 - -40.2°
Sets 20:32:31 0° 112° (ESE) 4,008 - -41.0°
